• In Uzbekistan
  • List of Countries
  • For 7 days
  • Water Temperature
  • Satellite Maps
  • Weather Map
  • Weather Widgets
  • user-avatar
    Login

    Hourly Weather Ordino

    Today, 27 April, Thursday

    Time Temperature Precipitation Wind Pressure Humidity
    00:00 -3°C° 0.4 mm 2 mps 628 mmHg 89%
    01:00 -3°C° 0.8 mm 2 mps 628 mmHg 90%
    02:00 -4°C° 0.8 mm 2 mps 628 mmHg 91%
    03:00 -4°C° 0.8 mm 2 mps 627 mmHg 92%
    04:00 -4°C° 0.7 mm 2 mps 627 mmHg 92%
    05:00 -4°C° 0.7 mm 2 mps 628 mmHg 91%
    06:00 -4°C° 0.7 mm 2 mps 628 mmHg 91%
    07:00 -4°C° 0.4 mm 2 mps 628 mmHg 87%
    08:00 -4°C° 0.4 mm 3 mps 628 mmHg 83%
    09:00 -2°C° 0.4 mm 3 mps 629 mmHg 79%
    10:00 -1°C° 0.1 mm 3 mps 629 mmHg 76%
    11:00 0°C° 0.1 mm 3 mps 629 mmHg 73%
    12:00 +1°C° 0.1 mm 3 mps 629 mmHg 69%
    13:00 +1°C° 0.1 mm 3 mps 629 mmHg 70%
    14:00 +1°C° 0.1 mm 3 mps 629 mmHg 70%
    15:00 +1°C° 0.1 mm 3 mps 629 mmHg 70%
    16:00 0°C° 0.1 mm 3 mps 629 mmHg 73%
    17:00 -1°C° 0.1 mm 3 mps 629 mmHg 76%
    18:00 -2°C° 0.1 mm 3 mps 629 mmHg 79%
    19:00 -4°C° 0 mm 3 mps 629 mmHg 80%
    20:00 -5°C° 0 mm 3 mps 630 mmHg 81%
    21:00 -6°C° 0 mm 3 mps 630 mmHg 82%
    22:00 -6°C° 0 mm 3 mps 630 mmHg 82%
    23:00 -7°C° 0 mm 3 mps 630 mmHg 82%

    Tomorrow, 28 April, Friday

    Time Temperature Precipitation Wind Pressure Humidity
    00:00 -7°C° 0 mm 3 mps 630 mmHg 82%
    01:00 -7°C° 0 mm 3 mps 630 mmHg 81%
    02:00 -8°C° 0 mm 3 mps 630 mmHg 81%
    03:00 -8°C° 0 mm 3 mps 630 mmHg 80%
    04:00 -7°C° 0 mm 3 mps 630 mmHg 77%
    05:00 -6°C° 0 mm 2 mps 630 mmHg 75%
    06:00 -6°C° 0 mm 2 mps 630 mmHg 72%
    07:00 -3°C° 0 mm 2 mps 631 mmHg 67%
    08:00 -1°C° 0 mm 2 mps 632 mmHg 62%
    09:00 +2°C° 0 mm 2 mps 633 mmHg 58%
    10:00 +3°C° 0 mm 2 mps 633 mmHg 57%
    11:00 +5°C° 0 mm 2 mps 633 mmHg 56%
    12:00 +6°C° 0 mm 2 mps 633 mmHg 55%
    13:00 +6°C° 0 mm 2 mps 633 mmHg 56%
    14:00 +6°C° 0 mm 2 mps 633 mmHg 57%
    15:00 +6°C° 0 mm 2 mps 632 mmHg 57%
    16:00 +6°C° 0 mm 1 mps 632 mmHg 63%
    17:00 +5°C° 0 mm 1 mps 632 mmHg 68%
    18:00 +4°C° 0 mm 1 mps 631 mmHg 74%
    19:00 +2°C° 0 mm 1 mps 630 mmHg 80%
    20:00 -1°C° 0 mm 1 mps 630 mmHg 86%
    21:00 -4°C° 0 mm 1 mps 629 mmHg 92%
    22:00 -4°C° 0 mm 1 mps 629 mmHg 92%
    23:00 -4°C° 0 mm 1 mps 629 mmHg 92%

    Day after tomorrow, 29 April, Saturday

    Time Temperature Precipitation Wind Pressure Humidity
    00:00 -4°C° 0 mm 1 mps 628 mmHg 92%
    01:00 -4°C° 0 mm 1 mps 628 mmHg 91%
    02:00 -4°C° 0 mm 1 mps 628 mmHg 90%
    03:00 -4°C° 0 mm 1 mps 627 mmHg 89%
    04:00 -3°C° 0 mm 1 mps 628 mmHg 85%
    05:00 -1°C° 0 mm 1 mps 629 mmHg 81%
    06:00 +1°C° 0 mm 1 mps 629 mmHg 77%
    07:00 +2°C° 0 mm 2 mps 630 mmHg 71%
    08:00 +4°C° 0 mm 2 mps 630 mmHg 65%
    09:00 +5°C° 0 mm 3 mps 631 mmHg 59%
    10:00 +7°C° 0 mm 3 mps 631 mmHg 58%
    11:00 +8°C° 0 mm 3 mps 631 mmHg 57%
    12:00 +9°C° 0 mm 3 mps 631 mmHg 56%
    13:00 +9°C° 0 mm 3 mps 631 mmHg 59%
    14:00 +9°C° 0 mm 3 mps 630 mmHg 62%
    15:00 +9°C° 0 mm 3 mps 630 mmHg 65%
    16:00 +8°C° 0 mm 3 mps 629 mmHg 71%
    17:00 +7°C° 0 mm 3 mps 628 mmHg 77%
    18:00 +4°C° 0 mm 3 mps 628 mmHg 83%
    19:00 +4°C° 0.1 mm 3 mps 628 mmHg 86%
    20:00 +4°C° 0.1 mm 2 mps 628 mmHg 88%
    21:00 +3°C° 0.1 mm 2 mps 628 mmHg 91%
    22:00 +3°C° 0.1 mm 2 mps 628 mmHg 91%
    23:00 +3°C° 0.1 mm 2 mps 628 mmHg 91%

    30 April, Sunday

    Time Temperature Precipitation Wind Pressure Humidity
    00:00 +3°C° 0.1 mm 2 mps 628 mmHg 91%
    01:00 +3°C° 0 mm 2 mps 627 mmHg 91%
    02:00 +2°C° 0 mm 2 mps 627 mmHg 91%
    03:00 +2°C° 0 mm 2 mps 627 mmHg 91%
    04:00 +3°C° 0 mm 2 mps 627 mmHg 90%
    05:00 +3°C° 0 mm 2 mps 627 mmHg 88%
    06:00 +3°C° 0 mm 2 mps 627 mmHg 87%
    07:00 +4°C° 0.1 mm 3 mps 627 mmHg 82%
    08:00 +5°C° 0.1 mm 3 mps 628 mmHg 77%
    09:00 +8°C° 0.1 mm 3 mps 628 mmHg 72%
    10:00 +8°C° 0.2 mm 3 mps 628 mmHg 72%
    11:00 +8°C° 0.2 mm 4 mps 628 mmHg 71%
    12:00 +8°C° 0.2 mm 4 mps 628 mmHg 70%
    13:00 +8°C° 0.3 mm 4 mps 627 mmHg 72%
    14:00 +8°C° 0.3 mm 4 mps 627 mmHg 75%
    15:00 +7°C° 0.3 mm 4 mps 626 mmHg 77%
    16:00 +7°C° 0.6 mm 4 mps 626 mmHg 80%
    17:00 +6°C° 0.6 mm 4 mps 626 mmHg 83%
    18:00 +6°C° 0.6 mm 4 mps 625 mmHg 86%
    19:00 +5°C° 2.8 mm 4 mps 625 mmHg 89%
    20:00 +4°C° 2.8 mm 4 mps 625 mmHg 93%
    21:00 +3°C° 2.8 mm 4 mps 625 mmHg 96%
    22:00 +2°C° 3.2 mm 3 mps 625 mmHg 96%
    23:00 +2°C° 3.2 mm 2 mps 625 mmHg 96%

    1 May, Monday

    Time Temperature Precipitation Wind Pressure Humidity
    00:00 +2°C° 3.2 mm 1 mps 625 mmHg 96%
    01:00 -1°C° 0.6 mm 2 mps 625 mmHg 95%
    02:00 -1°C° 0.6 mm 2 mps 625 mmHg 95%
    03:00 -2°C° 0.6 mm 2 mps 625 mmHg 94%
    04:00 -2°C° 0.5 mm 2 mps 625 mmHg 93%
    05:00 -1°C° 0.5 mm 2 mps 626 mmHg 93%
    06:00 -1°C° 0.5 mm 2 mps 627 mmHg 93%
    07:00 0°C° 0.2 mm 3 mps 628 mmHg 87%
    08:00 0°C° 0.2 mm 4 mps 629 mmHg 82%
    09:00 +1°C° 0.2 mm 4 mps 629 mmHg 77%
    10:00 +1°C° 0.2 mm 4 mps 630 mmHg 75%
    11:00 +3°C° 0.2 mm 4 mps 631 mmHg 74%
    12:00 +2°C° 0.2 mm 5 mps 631 mmHg 72%
    13:00 +3°C° 0.2 mm 4 mps 632 mmHg 71%
    14:00 +3°C° 0.2 mm 4 mps 632 mmHg 70%
    15:00 +3°C° 0.2 mm 4 mps 632 mmHg 70%
    16:00 +3°C° 0.2 mm 4 mps 632 mmHg 73%
    17:00 +2°C° 0.2 mm 3 mps 633 mmHg 76%
    18:00 +1°C° 0.2 mm 3 mps 633 mmHg 79%
    19:00 0°C° 0 mm 3 mps 633 mmHg 81%
    20:00 -1°C° 0 mm 3 mps 633 mmHg 83%
    21:00 -2°C° 0 mm 3 mps 634 mmHg 84%
    22:00 -2°C° 0 mm 3 mps 634 mmHg 83%
    23:00 -2°C° 0 mm 3 mps 634 mmHg 82%

    2 May, Tuesday

    Time Temperature Precipitation Wind Pressure Humidity
    00:00 -2°C° 0 mm 3 mps 634 mmHg 81%
    01:00 -2°C° 0 mm 3 mps 634 mmHg 80%
    02:00 -4°C° 0 mm 3 mps 634 mmHg 79%
    03:00 -4°C° 0 mm 3 mps 634 mmHg 78%
    04:00 -2°C° 0 mm 3 mps 634 mmHg 77%
    05:00 -2°C° 0 mm 3 mps 635 mmHg 76%
    06:00 -1°C° 0 mm 3 mps 635 mmHg 74%
    07:00 +1°C° 0 mm 3 mps 636 mmHg 70%
    08:00 +3°C° 0 mm 3 mps 636 mmHg 65%
    09:00 +5°C° 0 mm 3 mps 637 mmHg 61%
    10:00 +7°C° 0 mm 3 mps 637 mmHg 59%
    11:00 +8°C° 0 mm 3 mps 637 mmHg 58%
    12:00 +9°C° 0 mm 3 mps 637 mmHg 56%
    13:00 +9°C° 0 mm 3 mps 637 mmHg 57%
    14:00 +9°C° 0 mm 3 mps 637 mmHg 58%
    15:00 +9°C° 0 mm 3 mps 637 mmHg 59%
    16:00 +8°C° 0 mm 3 mps 636 mmHg 65%
    17:00 +7°C° 0 mm 3 mps 636 mmHg 71%
    18:00 +6°C° 0 mm 2 mps 635 mmHg 77%
    19:00 +4°C° 0 mm 2 mps 635 mmHg 81%
    20:00 +3°C° 0 mm 2 mps 635 mmHg 85%
    21:00 +2°C° 0 mm 2 mps 635 mmHg 89%
    22:00 +1°C° 0 mm 2 mps 634 mmHg 88%
    23:00 +1°C° 0 mm 2 mps 634 mmHg 87%
    Show more